Current weather by "City, St" or "zip code"  
 
Advertise Here

Current Conditions: Tupelo, Tupelo Regional Airport, MS

Fair


40.0 F

Last Updated on Jan 17 2021, 9:53 pm CST
Humidity: 58%
Wind Speed: SW 5.8 mph
Barometer 29.99 in
Dewpoint: 26.1 F
Visibility: 10.00 mi
Precip: --
Heat Index: NA
Wind Chill: 36 F
Current conditions at:

Tupelo, Tupelo Regional Airport, MS (KTUP)

Lat: 34.26806 Lon: 88.77

Local Radar Image active severe weather and emergency alerts image image weather storm and storm spotter reports image weather observation monitoring service image
Local
Radar
Active
Alerts
Storm Reports Obs
Monitoring

Sign-up For Email & Text Message Weather Alert Notification Services


Advertise Here

Observation History for Tupelo, Tupelo Regional Airport, MS


Time Wind
(mph)
Vis
(mi)
Weather Precip (in) Temperature (F) Relative
Humidity
Wind
Chill
(F)
Heat
Index
(F)
Pressure
Air Dwpt altimeter
(in)
sea level
(mb)
Rmks
9:53 pm CST SW 5.8 10.00 Fair -- 40.0 26.1 58% 36 NA 29.99 1015.4
8:53 pm CST SW 3.5 10.00 Fair -- 40.0 26.1 58% NA NA 29.98 1015.2
7:53 pm CST N 0.0 10.00 Fair -- 42.0 26.1 53% NA NA 29.97 1015.1
6:53 pm CST N 0.0 9.00 Fair -- 45.0 25.0 46% NA NA 29.97 1014.9
5:53 pm CST W 3.5 10.00 Fair -- 49.0 24.1 38% NA NA 29.95 1014.2
4:53 pm CST 10.00 Fair -- 51.0 23.0 33% NA NA 29.92 1013.3
3:53 pm CST W 8.1 G 19.6 10.00 Fair -- 54.0 19.9 26% 52 NA 29.90 1012.6
2:53 pm CST W 12.7 G 23.0 10.00 Fair -- 56.0 19.9 24% 53 NA 29.89 1012.1
1:53 pm CST W 13.8 G 24.2 10.00 Fair -- 56.0 21.9 27% 53 NA 29.89 1012.1
12:53 pm CST SW 15.0 G 21.9 10.00 Fair -- 55.0 23.0 29% 51 NA 29.90 1012.4
11:53 am CST SW 10.4 G 18.4 10.00 Fair -- 52.0 27.0 38% 48 NA 29.93 1013.5
10:53 am CST SW 10.4 10.00 Fair -- 51.0 28.0 41% 47 NA 29.97 1014.8
9:53 am CST W 5.8 10.00 Fair -- 47.0 30.0 52% 44 NA 29.98 1015.5
8:53 am CST S 4.6 10.00 Partly Cloudy -- 42.0 30.9 65% 39 NA 29.96 1014.7
7:53 am CST SW 5.8 10.00 Fair -- 37.0 30.0 76% 32 NA 29.97 1015.0
6:53 am CST SW 3.5 10.00 Overcast -- 36.0 28.9 76% NA NA 29.97 1014.8
5:53 am CST SW 4.6 10.00 Mostly Cloudy -- 37.0 28.9 73% 33 NA 29.96 1014.5
4:53 am CST SW 3.5 10.00 Overcast -- 37.0 30.0 76% NA NA 29.94 1014.0
3:53 am CST SW 4.6 10.00 Mostly Cloudy -- 38.0 28.9 70% 34 NA 29.93 1013.7
2:53 am CST N 0.0 10.00 A Few Clouds -- 36.0 30.0 79% NA NA 29.96 1014.6
1:53 am CST N 0.0 10.00 Mostly Cloudy -- 37.0 30.0 76% NA NA 29.96 1014.5
12:53 am CST N 0.0 10.00 Overcast -- 37.0 30.0 76% NA NA 29.97 1015.0
11:53 pm CST N 0.0 10.00 Overcast -- 35.0 28.9 78% NA NA 29.98 1015.4
10:53 pm CST S 3.5 10.00 Fair -- 33.0 28.0 82% NA NA 29.99 1015.6

Regional Weather Observation


Corinth, MS (KCRX)

Overcast
43.0 F

Oxford, University-Oxford Airport, MS (KUOX)

Fair
34.0 F

Unknown Station (K01M)

Overcast
82.0 F

Batesville Panola County, MS (KPMU)

Fair
32.0 F

Olive Branch, Olive Branch Airport, MS (KOLV)

Overcast
39.0 F

Monroe County Airport, MS (KM40)

Fair
34.0 F